TIME,DELAY(SENSOR),PRES,OXYGEN,RAWTEMP,T(OPTODE),TCPHASE,FLUOR,BETA(BETA700),BETA(BETA412),BETA(BETA440),CDOM,C(CSC),ED(ED412.20),ED(ED444.00),ED(ED489.60),ED(ED554.30),LU(LU412.10),LU(LU443.90),LU(LU489.70),LU(LU554.70),COMP,TILTX,TILTY,CHECK
1334893284,5809,895.4400024414062000,37.5268402099609400,562.6663208007812000,4.4032330513000490,55.9151191711425800,55,102,100,79,83,15445,0,0,0,0,2147126290,2147781659,2147570011,2147571693,1507,2,13,52453
1334896880,5809,987.1400146484375000,43.4221000671386700,569.4069213867188000,4.1939911842346190,55.1078681945800800,55,101,102,78,84,15442,0,0,0,0,2147124946,2147781577,2147569243,2147571145,3345,2,13,4207
1334900480,5809,999.7800292968750000,43.7577781677246100,570.6101074218750000,4.1566009521484375,55.0745506286621100,55,98,101,78,82,15439,0,0,0,0,2147122304,2147779264,2147572233,2147573184,138,2,13,52068
1334904080,5809,1004.7999877929688000,43.7016983032226560,571.3214111328125000,4.1344909667968750,55.0868492126464840,55,98,103,80,83,15443,0,0,0,0,2147122907,2147778368,2147573010,2147572617,3397,2,13,48683
1334907680,5810,1003.3699951171875000,43.4696807861328100,571.7473144531250000,4.1212520599365230,55.1274108886718750,55,98,101,79,83,15441,0,0,0,0,2147124434,2147777115,2147575616,2147571181,116,2,13,14716
1334911280,5808,1005.2100219726562000,43.4075813293457000,571.9968261718750000,4.1134948730468750,55.1384811401367200,54,98,103,78,83,15440,0,0,0,0,2147123446,2147774592,2147574610,2147574756,325,2,13,41848
1334914880,5812,1002.3300170898438000,43.1465606689453100,572.9923706054688000,4.0825309753417970,55.1834297180175800,55,101,101,79,82,15442,0,0,0,0,2147125138,2147775570,2147576914,2147570788,2905,2,13,34482
1334918480,5808,1005.3900146484375000,43.4729499816894500,573.5305786132812000,4.0657920837402340,55.1473808288574200,55,101,102,77,84,15442,0,0,0,0,2147128310,2147775908,2147569133,2147571465,250,2,13,19531
1334922080,5810,1003.9899902343750000,43.4641990661621100,573.3864746093750000,4.0702738761901855,55.1415290832519500,54,100,101,79,84,15439,0,0,0,0,2147124516,2147779090,2147572516,2147575195,2899,2,13,21654
1334925680,5808,1007.8400268554688000,42.5063514709472660,573.5714111328125000,4.0645260810852050,55.2830009460449200,54,99,101,78,84,15437,0,0,0,0,2147124068,2147777444,2147572626,2147571949,333,2,13,30020
1334929280,5813,1016.9699707031250000,44.0101890563964840,573.4080810546875000,4.0696029663085940,55.0715293884277340,55,101,101,79,83,15438,0,0,0,0,2147125723,2147779520,2147572470,2147571410,3072,2,13,57437
1334932880,5811,1014.8400268554688000,43.4562416076660160,572.7288818359375000,4.0907292366027830,55.1365585327148440,55,99,102,79,83,15437,0,0,0,0,2147124525,2147777270,2147573522,2147574116,3288,2,13,64041
1334936480,5810,1019.2299804687500000,43.5197296142578100,573.0100708007812000,4.0819821357727050,55.1318817138671900,55,98,102,78,83,15436,0,0,0,0,2147123638,2147779776,2147576594,2147570358,3255,2,13,3531
1334940080,5809,1019.7299804687500000,42.7987289428710940,572.9091796875000000,4.0851187705993650,55.2332611083984400,56,100,103,79,85,15427,0,0,0,0,2147125266,2147780498,2147575021,2147571785,3376,2,13,60913
1334943680,5806,1015.1799926757812000,43.0919799804687500,573.1619262695312000,4.0772590637207030,55.1937294006347660,55,98,102,78,83,15432,0,0,0,0,2147125604,2147778669,2147574537,2147574144,102,2,13,51965
1334947280,5808,1016.8900146484375000,43.0651092529296900,573.1309814453125000,4.0782198905944820,55.1998100280761700,54,98,103,79,82,15436,0,0,0,0,2147125622,2147781129,2147575616,2147573165,290,2,13,14874
1334950880,5806,1015.1300048828125000,42.9681816101074200,572.8361206054688000,4.0873951911926270,55.2067489624023440,56,98,102,80,85,15435,0,0,0,0,2147126409,2147778596,2147574317,2147572726,309,2,13,56588
1334954480,5809,1019.0000000000000000,43.2881317138671900,572.7565917968750000,4.0898671150207520,55.1605796813964840,54,100,102,79,83,15436,0,0,0,0,2147125860,2147780443,2147573476,2147571547,250,2,13,2391
1334958080,5809,1018.1500244140625000,43.3689384460449200,573.1013793945312000,4.0791420936584470,55.1528892517089840,55,99,103,79,84,15436,0,0,0,0,2147128402,2147777408,2147572946,2147574134,136,2,13,46350
1334961680,5809,1022.9099731445312000,43.5156707763671900,572.4783935546875000,4.0985178947448730,55.1250801086425800,55,100,102,78,83,15433,0,0,0,0,2147126756,2147778386,2147572425,2147571520,3554,2,13,10588
1334965280,5808,1016.7999877929688000,43.2959213256835940,572.9799194335938000,4.0829238891601560,55.1644515991210940,54,100,101,79,84,15433,0,0,0,0,2147127250,2147780635,2147574171,2147572425,382,2,13,41734
1334968880,5807,1014.7600097656250000,42.6764984130859400,573.5443725585938000,4.0653648376464840,55.2626304626464840,56,101,101,78,83,15432,0,0,0,0,2147123730,2147778304,2147572278,2147571904,496,2,13,36010
1334972480,5811,1020.8200073242188000,43.3938293457031250,573.0557250976562000,4.0805640220642090,55.1530609130859400,55,99,101,78,83,15432,0,0,0,0,2147123894,2147777508,2147580242,2147573110,128,2,13,49486
1334976080,5810,1021.3699951171875000,43.5494117736816400,572.9177246093750000,4.0848541259765625,55.1284484863281250,56,101,104,78,83,15429,0,0,0,0,2147123931,2147778779,2147571035,2147571840,744,2,13,61197
1334979680,5808,1020.0900268554688000,42.9907493591308600,573.3289794921875000,4.0720648765563965,55.2134399414062500,55,100,101,79,84,15431,0,0,0,0,2147123446,2147779291,2147570614,2147572004,251,2,13,13410
1334983280,5810,1006.3499755859375000,42.9128189086914060,574.4946289062500000,4.0358028411865230,55.2383613586425800,55,99,101,79,85,15429,0,0,0,0,2147126628,2147785024,2147571684,2147572370,780,2,13,50421
1334986880,5809,1011.4299926757812000,43.0739288330078100,574.9776000976562000,4.0207729339599610,55.2177200317382800,55,100,103,78,83,15430,0,0,0,0,2147126326,2147772854,2147573046,2147573778,2684,2,13,27437
1334990480,5813,1014.6500244140625000,42.1515007019043000,575.7736206054688000,3.9960019588470460,55.3637390136718750,55,99,104,78,84,15430,0,0,0,0,2147127515,2147783917,2147573997,2147569883,34,2,13,46750
1334994080,5812,1021.7399902343750000,43.4465599060058600,574.8850708007812000,4.0236511230468750,55.1617088317871100,54,99,103,79,83,15428,0,0,0,0,2147126445,2147778112,2147572818,2147571931,3264,2,13,63436
1334997680,5811,1017.2700195312500000,42.7702789306640600,575.2443237304688000,4.0124740600585940,55.2630195617675800,55,99,101,78,83,15430,0,0,0,0,2147126070,2147779602,2147573750,2147574838,58,2,13,40718
1335001280,5810,1013.0599975585938000,42.8570098876953100,575.3859252929688000,4.0080680847167970,55.2524414062500000,56,98,101,78,85,15430,0,0,0,0,2147127972,2147775597,2147572662,2147570962,3420,2,13,12793
1335004880,5809,1016.3099975585938000,43.2927017211914060,575.6749267578125000,3.9990730285644530,55.1968803405761700,56,100,100,77,85,15428,0,0,0,0,2147126409,2147779364,2147575268,2147573668,3387,2,13,48854
1335008480,5810,1021.0399780273438000,43.3350105285644500,575.3182983398438000,4.0101718902587890,55.1846389770507800,54,100,101,79,83,15428,0,0,0,0,2147126089,2147776274,2147570084,2147576228,357,2,13,22963
1335012080,5811,1022.2899780273438000,43.4908218383789060,574.7808227539062000,4.0268969535827640,55.1547889709472660,55,100,103,79,83,15426,0,0,0,0,2147125522,2147776777,2147572141,2147572352,3396,2,13,25910
1335015680,5810,1022.1799926757812000,43.5276603698730500,574.5673217773438000,4.0335412025451660,55.1455192565918000,55,98,101,77,83,15407,0,0,0,0,2147124297,2147778468,2147574272,2147569664,3093,2,13,36734
1335019280,5809,1016.4400024414062000,43.2025108337402340,575.1322021484375000,4.0159630775451660,55.2000389099121100,55,97,101,78,84,15426,0,0,0,0,2147129362,2147777353,2147572571,2147573613,3595,2,13,60182
1335022880,5811,1026.5400390625000000,43.4469909667968750,574.6146240234375000,4.0320677757263180,55.1584205627441400,54,99,102,79,83,15426,0,0,0,0,2147126747,2147779556,2147570916,2147569627,3137,2,13,19572
1335026480,5811,1023.5800170898438000,43.0276489257812500,574.5861206054688000,4.0329570770263670,55.2224197387695300,55,102,103,79,84,15423,0,0,0,0,2147126701,2147777499,2147573229,2147571099,54,2,13,30884
1335030080,5807,1022.7500000000000000,42.5483818054199200,573.4047851562500000,4.0697040557861330,55.2780418395996100,55,100,101,79,84,15422,0,0,0,0,2147129088,2147778788,2147572690,2147572525,293,2,13,54204
1335033680,5811,1017.4199829101562000,42.5333786010742200,574.7459106445312000,4.0279831886291500,55.2912483215332000,55,99,103,79,84,15424,0,0,0,0,2147125339,2147778788,2147571236,2147572214,3346,2,13,31708
1335037280,5810,1018.0499877929688000,43.4188117980957000,574.8635253906250000,4.0243239402771000,55.1688995361328100,55,101,103,78,83,15422,0,0,0,0,2147123602,2147781814,2147571382,2147572928,225,2,13,12770
1335037856,5810,1017.3400268554688000,43.5152397155761700,575.2149047851562000,4.0133900642395020,55.1547889709472660,55,99,101,78,84,15424,0,0,0,0,2147127771,2147777124,2147572946,2147566262,149,2,13,55390
